Torna al catalogo

TJS-3 AKM

AttivoGEO
NORAD 43917·ROCKET BODY·🇨🇳 China

Lanciato Dec 24, 2018 da Xichang Satellite Launch Center

Loading…

TLE

AggiornatoSource: Space-Track

Epoca: Sep 14, 2026, 14:52 UTC

1 43917U 18110C   26257.61982122 -.00000019  00000-0  00000-0 0  9999
2 43917   4.9080  77.2342 0006755 122.7283 242.6907  0.98354635 27923

Traccia TJS-3 AKM in tempo reale con AllMySat

Download on the App Store